GFSNW_con_sbcape_132.txt.gz
CAPE
3 4 0 0 0 0 0 0 0 0 0 0 0 0 0 0 0 0 0 0 0 0 0 0 0 0 0 0 0 0 0 0 0 0 0 0 0 0 0 0 0 0 0 0
5 2 0 0 0 0 0 0 0 0 0 0 0 0 0 0 0 0 0 0 0 0 0 0 1 0 0 0 0 0 0 0 0 0 0 0 0 0 0 0 0 0 0 0
6 3 0 0 0 0 0 0 0 0 0 0 0 0 0 0 0 0 0 0 0 0 0 0 0 0 0 0 0 3 0 0 0 0 0 0 0 0 0 0 0 0 0 1
3 0 0 0 0 0 0 0 0 0 0 0 0 0 0 0 0 0 0 0 0 0 0 0 0 0 0 0 14 0 0 0 0 0 0 0 0 0 0 0 0 0 0 0
1 4 2 0 0 0 0 0 0 0 0 0 0 0 0 0 0 0 0 0 0 0 0 0 0 0 0 0 0 0 0 0 0 0 0 0 0 0 0 0 0 0 0 2
4 7 6 0 0 0 0 0 0 0 0 0 0 0 0 0 0 0 0 0 0 1 0 0 0 0 0 0 0 0 0 0 0 0 0 0 0 0 0 0 0 0 0 0
2 4 7 1 0 0 0 0 0 0 0 0 0 0 0 0 0 0 0 0 2 0 0 0 0 0 0 0 0 0 0 0 0 0 0 0 0 0 0 0 0 0 0 30
1 1 3 7 0 0 0 0 0 8 7 0 0 0 0 0 0 0 0 4 0 0 0 0 0 0 0 0 0 0 0 0 0 0 0 0 0 0 0 0 0 0 10 153
11 5 1 8 2 0 0 0 0 9 10 0 0 0 0 0 0 0 0 0 0 0 0 0 0 0 0 0 0 0 0 0 0 0 0 0 0 0 0 0 0 0 20 153
28 12 2 8 1 2 1 0 0 6 17 0 0 0 0 0 0 0 0 0 0 0 0 0 0 1 0 0 0 0 0 0 0 0 0 0 0 0 0 0 0 0 0 11
8 27 12 9 0 5 3 0 0 2 18 0 0 0 0 0 0 0 0 0 0 0 7 0 0 0 0 0 0 0 0 0 0 0 0 4 6 20 0 0 0 0 0 0
5 19 19 11 10 0 25 0 0 1 17 0 0 0 0 0 0 0 0 0 0 0 0 0 0 0 0 0 0 0 0 0 1 0 0 3 38 1 0 0 0 0 0 0
2 3 26 17 19 12 23 8 1 0 2 0 0 0 0 0 0 0 0 0 0 0 0 0 0 0 0 0 0 0 22 0 37 3 4 16 64 0 0 0 0 0 0 0
0 1 27 21 20 10 23 17 8 6 17 11 0 0 0 0 0 0 0 0 0 0 0 0 0 0 0 0 0 0 0 0 5 4 67 37 8 62 57 23 0 1 0 11
0 0 24 24 17 13 16 7 0 2 2 7 0 0 0 0 0 0 0 0 0 0 0 0 0 0 0 0 0 0 0 0 0 0 13 30 34 12 0 0 0 0 1 33
1 1 32 23 11 11 10 1 0 4 8 9 2 0 0 0 0 0 0 0 0 0 0 0 0 0 0 0 0 0 0 4 0 72 10 3 22 3 0 0 0 0 27 32
10 21 29 16 6 7 13 4 0 0 0 3 6 0 0 1 0 0 0 0 0 0 0 0 0 0 0 0 0 0 0 0 3 117 20 34 22 0 1 0 0 28 105 94
14 32 9 1 0 1 0 0 0 0 0 3 21 0 0 17 13 0 0 0 0 0 0 0 0 0 0 0 0 0 0 1 0 325 188 18 21 47 99 29 103 66 11 0
31 2 0 0 5 8 0 6 0 0 1 12 28 3 0 1 18 19 1 0 2 0 0 0 0 0 0 0 24 0 0 0 0 59 261 32 170 144 259 213 161 18 0 0
5 0 3 1 1 13 14 2 18 18 20 8 9 0 0 0 30 14 22 6 16 4 4 0 0 0 0 0 0 0 0 0 0 0 21 260 103 240 283 347 229 0 0 0
0 1 7 0 17 8 5 23 18 3 13 0 0 0 0 0 10 26 14 15 5 41 35 0 0 0 0 0 0 0 0 0 0 0 0 172 54 297 255 155 62 9 0 0
3 0 0 0 11 1 30 28 16 4 2 0 0 0 0 2 2 0 0 8 2 0 15 30 1 0 0 0 0 0 0 0 0 0 0 0 0 2 112 216 181 134 45 2
5 8 7 18 17 25 27 3 29 22 7 33 59 24 13 0 0 8 0 7 17 44 13 4 0 3 0 0 0 0 0 0 0 0 0 0 4 2 0 260 222 202 55 126
2 24 3 6 8 7 3 11 0 9 6 3 7 27 17 5 33 11 10 0 22 5 2 0 8 0 0 7 39 0 1 4 1 0 6 0 0 74 0 36 132 191 99 175
3 9 1 0 0 0 19 19 16 1 1 1 1 7 0 41 31 16 19 5 8 1 8 11 21 0 48 133 134 6 0 66 47 0 0 0 0 37 14 72 232 271 189 220
7 5 3 0 0 0 38 32 40 48 0 6 0 15 14 18 11 11 1 6 19 13 33 16 55 112 28 1 0 27 156 15 5 2 1 0 0 3 19 159 291 296 292 295
12 3 0 0 0 0 0 32 13 0 6 15 6 23 21 1 7 9 21 24 16 62 85 94 91 32 0 0 0 1 36 229 304 219 161 125 16 0 3 207 368 468 398 379

GFSNW_con_sbcape_135.txt.gz
CAPE
3 5 0 0 0 0 0 0 0 0 0 0 0 0 0 0 0 0 0 0 0 0 0 0 0 0 0 0 0 0 0 0 0 0 0 0 0 0 0 0 0 0 0 0
5 4 0 0 0 0 0 0 0 0 0 0 0 0 0 0 0 0 0 0 0 0 0 0 0 0 0 0 0 0 0 0 0 0 0 0 0 0 0 0 0 0 0 0
6 2 0 0 0 0 0 0 0 0 0 0 0 0 0 0 0 0 0 0 0 0 0 0 0 0 0 0 0 0 0 0 0 0 0 0 0 0 0 0 0 0 0 1
3 1 0 0 0 0 0 0 0 0 0 0 0 0 0 0 0 0 0 0 0 0 0 0 0 0 0 0 1 0 0 0 0 0 0 0 0 0 0 0 0 0 0 0
2 9 4 0 0 0 0 0 0 0 0 0 0 0 0 0 0 0 0 0 0 0 0 0 0 0 0 0 0 0 0 0 0 0 0 0 0 0 0 0 0 0 0 0
3 5 2 0 0 0 0 0 0 0 0 0 0 0 0 0 0 0 0 0 0 0 0 0 0 0 0 0 0 0 0 0 0 0 0 0 0 0 0 0 0 0 0 0
1 2 4 4 0 0 0 0 0 0 0 0 0 0 0 0 0 0 0 0 0 0 0 0 0 0 0 0 0 0 0 0 0 0 0 0 0 0 0 0 0 0 0 0
10 8 6 1 1 0 0 0 0 0 3 0 0 0 0 0 0 0 0 0 0 0 0 0 0 0 0 0 0 0 0 0 0 0 0 0 0 0 0 0 0 0 0 0
22 22 10 9 3 0 0 0 0 1 16 0 0 0 0 0 0 0 0 0 0 0 0 0 0 0 0 0 0 0 0 0 0 0 0 0 0 0 0 0 0 0 0 26
1 14 24 9 13 0 9 0 0 2 32 0 0 0 0 0 0 0 0 0 0 0 0 0 0 0 0 0 0 0 0 0 0 0 0 0 0 0 0 0 0 0 0 0
1 5 20 20 14 7 12 0 0 0 29 2 0 0 0 0 0 0 0 0 0 0 0 0 0 0 0 0 0 0 0 0 0 0 0 0 0 0 0 0 0 0 0 0
7 1 4 29 22 23 25 14 0 7 14 0 0 0 0 0 0 0 0 0 0 0 0 0 0 0 0 0 14 0 0 0 0 0 0 0 0 0 0 0 0 0 0 0
15 2 2 24 33 33 30 35 17 3 6 0 0 0 0 0 0 0 0 0 0 0 0 0 0 0 0 0 0 0 9 0 0 1 0 0 0 0 0 0 0 0 0 0
17 6 0 17 43 30 30 38 24 27 15 29 0 0 0 0 0 0 0 0 0 0 0 0 0 0 0 0 0 0 6 1 0 34 25 33 9 0 0 0 0 0 0 0
16 9 0 17 29 22 16 23 8 5 11 5 1 0 0 0 0 0 0 0 0 0 0 0 0 0 0 0 0 0 0 0 0 3 53 14 35 13 0 0 0 0 0 1
21 8 2 29 24 16 31 18 0 1 12 20 4 0 0 0 0 0 0 0 0 0 0 0 0 0 0 0 0 0 0 0 0 6 25 0 3 0 0 0 0 0 0 0
20 12 22 27 16 27 31 6 0 0 2 13 13 0 0 0 0 0 0 0 0 9 2 0 0 0 0 0 0 0 0 0 0 3 52 55 11 18 0 0 0 0 24 17
19 25 35 13 4 1 4 0 0 0 2 14 32 0 0 3 4 1 0 0 0 2 9 0 0 0 0 0 0 0 0 36 41 20 21 70 11 0 0 0 0 40 3 0
26 22 4 0 3 17 0 0 1 0 3 30 39 4 0 0 1 51 3 0 0 0 0 0 0 0 0 0 0 0 0 1 35 91 19 28 15 0 0 38 0 7 0 0
15 0 3 5 0 0 25 8 9 37 14 5 10 0 0 0 0 13 55 3 5 0 0 0 0 0 0 0 0 0 0 0 0 205 68 97 100 47 48 134 41 4 0 0
0 0 2 1 14 6 7 33 30 18 21 4 0 0 0 0 0 6 6 3 3 21 6 0 0 0 0 0 0 0 0 0 0 0 88 92 144 155 184 174 93 0 0 0
6 5 0 0 7 5 37 26 11 6 1 0 0 0 0 0 0 0 0 21 7 0 0 12 0 0 0 0 0 0 0 0 0 0 0 28 61 164 212 242 146 0 0 0
6 10 27 17 12 31 25 2 11 12 3 57 46 44 1 1 0 1 0 0 0 2 9 3 0 0 0 0 0 0 0 0 0 0 0 2 3 73 246 220 147 0 0 0
2 15 4 2 10 9 1 10 27 8 28 0 18 53 52 7 6 0 8 0 11 21 4 0 0 0 0 0 0 1 0 0 0 0 0 0 0 0 44 107 96 23 3 0
2 18 2 0 0 0 4 32 27 20 6 0 0 14 15 3 15 0 5 9 0 0 3 4 0 0 0 20 1 23 6 0 0 0 0 0 0 0 0 2 114 74 21 8
8 11 5 0 0 0 3 16 28 27 7 0 3 4 0 8 0 2 2 13 19 2 0 0 3 40 8 3 0 0 9 0 0 0 0 0 0 0 0 0 30 84 37 68
10 0 0 0 0 0 0 0 17 1 3 19 13 2 0 0 3 0 0 18 3 2 15 1 0 9 6 0 0 3 12 114 173 140 76 19 0 0 0 0 6 99 76 136

GFSNW_con_sbcape_141.txt.gz
CAPE
6 1 1 0 0 0 0 0 0 0 0 0 0 0 0 0 0 0 0 0 0 0 0 0 0 0 0 0 0 0 0 0 0 0 0 0 0 0 0 0 0 0 0 0
5 2 3 0 0 0 2 0 0 0 0 0 0 0 0 0 0 0 0 0 0 0 0 0 0 0 0 0 0 0 0 0 0 0 0 0 0 0 0 0 0 0 0 0
5 3 0 0 0 0 0 0 0 0 0 0 0 0 0 0 0 0 0 0 0 0 0 0 0 0 0 0 0 0 0 0 0 3 0 0 0 0 0 0 0 0 0 0
9 7 1 0 0 0 0 0 0 0 0 0 0 0 0 0 0 0 0 0 0 0 0 0 0 0 2 0 47 0 0 0 0 0 0 0 0 0 0 0 0 0 0 0
11 9 2 0 0 0 0 0 0 0 0 0 0 0 0 0 0 0 0 0 0 0 0 0 0 0 0 0 0 0 0 0 0 0 0 0 0 0 0 0 0 0 0 0
42 16 7 1 0 0 0 0 0 0 0 0 0 0 0 0 0 0 0 0 0 0 0 0 0 0 0 0 0 0 0 0 0 0 0 0 0 0 0 0 0 0 0 0
12 17 43 9 6 1 2 0 1 2 0 0 0 0 0 0 0 0 0 0 0 0 0 0 0 0 0 0 0 0 0 0 0 0 0 0 0 0 0 0 0 0 0 0
11 9 3 43 10 4 3 2 4 4 1 0 0 0 0 0 0 0 0 0 0 0 0 0 0 0 0 0 0 0 0 0 0 0 0 0 0 0 0 0 0 0 0 0
11 6 4 11 39 11 5 3 1 4 6 0 0 4 0 0 0 0 0 0 0 0 0 6 4 71 0 0 0 0 0 0 8 0 0 0 0 0 0 0 0 0 0 0
8 7 3 2 13 32 21 7 0 23 40 1 4 6 6 1 5 1 0 0 0 0 6 37 0 101 0 9 0 0 0 0 0 0 0 0 0 0 0 0 0 0 0 0
15 10 7 1 3 24 43 14 5 36 49 6 2 1 3 7 5 4 0 0 1 1 5 48 34 23 43 3 0 0 1 0 0 0 0 0 0 0 0 0 0 0 0 0
17 15 16 13 2 7 48 33 29 43 44 6 0 0 0 1 5 11 14 0 0 0 0 14 17 131 1 117 23 0 0 23 14 12 13 9 81 88 50 0 62 0 10 0
18 18 19 14 0 12 54 59 35 66 32 2 1 0 0 0 0 0 10 1 0 1 0 0 2 14 3 25 6 6 11 0 13 14 149 10 86 143 50 56 74 10 0 0
21 15 17 20 3 20 50 64 75 72 56 25 0 0 0 0 0 0 0 0 0 0 0 0 0 52 12 48 16 4 51 0 15 150 134 202 160 195 244 97 6 0 0 0
21 17 18 22 10 23 40 40 27 35 33 23 3 0 0 0 0 0 0 0 1 7 0 1 0 10 134 16 0 0 24 83 152 124 702 690 501 269 230 116 23 0 0 0
22 19 34 17 15 30 48 9 9 1 54 47 17 0 0 0 0 0 0 0 7 16 23 13 0 0 0 265 87 65 0 0 0 13 269 394 318 311 220 149 34 1 0 9
24 43 31 26 28 49 27 6 16 0 1 58 26 0 0 0 0 1 4 5 25 21 18 34 14 0 1 3 233 65 0 0 1 99 383 373 351 359 88 6 49 36 0 49
18 29 36 41 18 14 6 0 0 0 4 49 11 0 0 0 5 0 8 20 31 36 40 39 41 5 7 0 16 26 0 26 132 181 171 226 368 227 42 19 191 176 0 19
21 28 33 6 12 12 2 7 0 0 46 51 56 9 1 0 69 20 0 15 52 40 28 26 40 19 4 0 0 1 9 91 295 364 262 226 292 102 92 97 249 295 133 44
17 20 19 4 1 0 1 83 71 31 58 14 26 1 0 0 4 89 56 63 14 13 0 35 60 1 0 9 30 2 0 0 34 323 379 135 198 112 233 303 314 308 233 186
21 9 17 3 0 57 42 43 47 33 21 28 2 0 0 0 0 74 53 110 136 70 47 28 34 1 2 4 3 0 0 0 0 4 250 250 119 135 170 207 224 247 226 190
14 17 3 5 4 37 23 42 49 32 21 6 0 2 0 0 0 69 62 146 58 31 30 49 28 40 2 0 0 0 0 0 0 0 0 29 298 110 254 316 329 345 276 188
21 38 18 16 4 5 7 2 33 71 61 1 9 59 0 0 6 26 41 65 97 41 70 90 92 111 34 0 0 0 0 0 0 0 0 6 246 290 183 382 458 403 323 158
22 4 0 9 14 24 21 35 51 80 64 72 67 81 143 102 80 89 96 67 85 52 49 37 92 188 78 27 6 15 40 1 0 0 0 0 73 189 361 406 544 415 382 161
14 25 0 6 0 0 2 23 41 68 64 51 31 58 85 118 78 34 38 46 40 30 24 21 13 94 148 95 69 132 160 125 122 0 0 3 153 300 424 486 539 496 470 222
4 4 9 3 0 0 10 8 4 16 11 16 49 39 57 12 21 58 48 33 35 17 46 64 51 7 63 80 113 183 186 78 165 115 4 0 89 295 431 542 570 559 520 423
14 3 2 2 1 0 0 0 0 29 59 25 50 50 30 0 60 29 36 71 80 49 234 76 10 2 9 70 57 200 235 186 158 77 25 12 5 18 147 346 512 576 557 573

GFSNW_con_sbcape_144.txt.gz
CAPE
6 6 3 0 0 0 0 0 0 0 0 0 0 0 0 0 0 0 0 0 0 0 0 0 0 0 0 0 0 0 0 0 11 0 0 0 1 0 5 10 9 0 3 47
7 6 3 0 0 0 0 0 0 0 0 0 0 0 0 0 0 0 0 0 0 0 0 0 0 0 0 0 0 0 0 0 16 9 0 0 0 0 12 17 11 36 8 20
12 4 2 0 0 0 0 0 0 1 0 0 0 0 2 0 0 0 0 0 0 0 0 0 0 0 0 0 0 0 0 3 8 68 41 4 0 0 0 4 14 7 6 5
20 2 4 0 0 0 0 0 0 0 7 9 0 0 0 1 10 1 0 1 0 1 0 0 0 0 0 0 3 0 0 1 26 8 6 23 15 18 3 5 19 50 55 24
26 28 12 0 0 0 0 0 0 0 0 0 0 0 0 1 16 0 20 13 29 7 2 0 14 0 0 46 7 0 0 6 73 59 0 0 19 14 0 0 0 0 0 0
14 18 18 9 0 0 0 0 0 0 0 0 0 0 0 0 0 0 0 0 7 4 12 10 2 0 0 23 41 67 7 1 102 110 0 1 21 0 0 0 0 0 0 0
7 6 6 9 8 1 6 5 2 5 0 0 0 0 0 0 0 0 0 1 0 0 0 0 0 0 0 0 30 11 111 17 140 128 50 52 47 0 0 0 0 0 0 0
12 9 7 1 17 6 6 5 7 8 0 0 0 0 0 0 0 0 0 0 0 1 0 0 0 0 0 25 90 13 19 38 126 232 161 94 1 0 0 0 0 0 0 0
9 8 7 1 4 18 17 4 8 20 17 0 0 1 1 0 0 0 0 0 0 0 0 12 40 28 1 49 0 11 40 173 18 145 220 190 114 0 0 0 0 0 0 0
16 12 12 4 0 6 44 5 23 47 21 0 0 2 3 4 5 1 0 1 0 29 75 44 55 92 82 194 133 5 0 0 0 173 206 109 46 45 0 0 0 0 0 0
19 16 14 15 2 2 56 17 30 45 32 2 2 5 9 9 10 1 1 0 41 96 129 113 81 104 182 234 236 34 37 6 0 89 174 103 25 53 6 6 1 0 0 0
19 15 15 18 11 1 13 54 49 84 69 0 1 3 7 4 4 6 2 5 15 5 131 147 192 409 304 315 245 55 40 0 40 20 95 414 142 27 30 53 32 75 98 205
18 20 16 16 19 6 20 75 52 22 33 3 0 0 0 0 0 0 3 1 2 1 37 62 93 267 433 446 355 133 15 1 0 39 113 284 152 374 345 184 180 297 129 244
18 24 17 17 22 17 19 74 68 47 48 21 1 0 1 0 1 0 0 3 25 11 21 0 25 58 373 519 387 314 231 13 18 98 368 311 211 452 451 464 455 337 400 356
26 24 15 20 23 19 29 62 35 26 21 14 0 0 7 1 1 4 1 10 18 1 23 15 39 71 52 324 286 292 264 260 168 17 640 785 639 551 684 606 468 416 411 258
33 22 31 38 27 16 82 20 32 39 54 22 25 23 0 2 0 1 5 13 24 12 33 30 24 14 28 55 487 300 136 123 189 274 520 851 882 665 656 614 517 373 288 252
30 21 27 40 27 61 44 23 43 4 41 40 40 16 0 1 13 10 13 15 12 21 15 63 72 57 56 60 164 331 125 80 208 227 661 891 812 823 606 584 420 175 320 395
21 13 36 40 29 20 18 13 1 0 6 12 33 7 0 3 23 12 12 8 39 58 118 29 35 24 9 52 42 148 278 121 400 646 508 788 940 757 594 498 447 401 484 495
8 13 14 49 32 31 27 17 0 17 14 92 65 17 8 2 96 133 50 28 83 197 28 23 28 28 28 34 68 121 239 260 150 400 558 853 853 749 497 477 513 431 422 343
8 28 38 33 32 6 10 70 42 64 95 95 22 18 19 7 8 68 70 76 43 40 28 47 27 11 21 0 83 96 93 83 62 192 598 608 638 460 426 509 690 517 346 267
58 36 20 26 0 62 71 78 64 56 52 30 14 5 19 6 12 91 43 63 75 163 167 56 85 72 85 83 54 70 73 71 20 19 466 609 668 490 640 491 436 383 448 475
41 25 9 16 41 38 44 68 84 58 46 51 9 21 0 3 5 50 270 243 287 126 139 15 80 268 293 345 139 94 53 29 15 0 0 447 582 502 511 487 463 455 449 424
67 59 46 17 19 113 14 14 66 64 39 10 48 22 83 29 3 155 299 168 124 250 212 116 202 275 395 365 300 152 14 27 0 0 2 152 479 559 591 631 586 591 534 402
44 26 50 10 12 22 30 61 89 76 113 105 121 115 218 244 231 306 178 129 141 79 60 65 277 53 259 381 338 319 79 10 16 30 14 2 218 650 676 706 789 754 748 543
35 38 55 11 17 15 37 15 21 81 22 18 34 97 207 192 248 202 91 68 61 62 19 20 79 119 191 416 400 506 442 288 116 1 2 5 6 62 407 608 863 918 967 853
12 10 16 11 17 19 23 56 36 27 9 7 13 41 43 9 109 124 101 59 31 54 49 64 101 21 24 195 292 461 587 382 379 370 84 7 36 212 568 765 876 1141 1246 1167
35 16 8 13 11 5 18 5 4 1 36 31 61 50 61 72 149 91 140 153 109 141 107 256 131 51 134 123 98 236 310 462 480 551 429 292 80 233 614 993 1418 1043 1241 1434

GFSNW_con_sbcape_147.txt.gz
CAPE
5 0 0 0 0 0 0 0 0 0 0 0 0 0 0 0 0 0 0 0 0 0 0 0 0 4 13 1 0 2 0 0 0 2 0 0 2 0 11 61 96 92 74 60
14 0 0 0 0 0 0 0 0 0 0 0 1 0 0 0 0 0 0 0 0 0 0 0 0 2 10 0 0 0 2 0 7 6 40 1 0 2 6 41 68 89 77 130
18 13 0 0 0 0 0 0 0 5 0 0 0 0 3 2 0 0 0 0 0 0 0 0 0 0 3 0 0 66 0 1 0 43 87 45 1 0 3 61 69 99 106 198
6 20 1 0 0 0 0 0 1 0 4 17 1 1 0 5 13 3 4 3 1 4 23 8 1 0 2 1 0 0 0 0 17 0 1 56 92 0 0 28 89 96 114 127
5 14 9 0 0 0 0 0 0 2 0 0 0 0 0 3 10 27 37 39 19 29 44 37 59 43 10 36 65 9 17 23 22 45 69 37 72 32 41 51 69 79 30 39
10 4 8 0 0 0 0 2 0 0 0 0 0 0 0 3 4 3 5 0 7 42 57 26 22 26 32 72 195 127 209 111 136 87 116 116 133 112 81 72 57 51 100 79
11 8 9 2 0 0 9 10 1 0 0 0 2 0 0 1 3 3 5 9 7 0 8 1 0 0 0 1 19 87 121 513 300 185 375 214 96 94 93 83 61 50 33 10
10 10 12 5 0 0 9 12 8 2 0 0 0 0 0 0 0 0 0 0 0 0 0 3 2 0 8 9 0 13 90 163 454 298 299 53 245 90 87 36 23 3 2 0
12 18 13 9 1 0 18 6 9 11 0 5 3 0 0 0 2 5 7 2 0 0 5 12 27 38 95 121 29 3 162 190 327 271 71 401 247 144 71 12 0 0 0 0
19 20 15 14 2 0 12 12 19 24 5 0 0 3 13 16 6 4 21 17 9 0 11 37 62 40 128 208 114 227 293 262 78 149 255 237 263 6 20 10 106 12 5 0
17 22 16 16 14 0 9 34 24 30 25 0 0 0 1 2 4 3 28 0 0 6 95 72 53 92 133 261 288 306 376 410 203 123 332 395 65 120 73 372 34 0 0 0
18 19 15 16 20 2 1 34 30 48 43 2 1 0 0 1 3 6 4 1 10 37 172 302 520 425 357 443 367 290 292 224 232 152 400 1070 14 212 66 150 144 32 12 56
22 20 26 10 16 18 3 61 52 44 19 0 0 1 2 0 0 0 0 2 18 23 48 117 235 283 560 442 429 355 357 285 216 368 198 105 245 352 100 84 93 166 100 173
25 20 27 17 12 26 9 73 63 32 36 11 8 0 2 1 4 3 1 0 13 10 30 32 50 165 354 427 413 387 157 331 249 193 244 342 301 290 405 196 378 330 274 274
23 25 26 21 30 39 14 22 29 45 29 19 1 0 10 38 44 17 10 3 0 10 15 22 77 90 75 22 56 169 257 338 138 182 266 663 753 639 514 750 677 679 634 523
22 25 24 18 40 14 35 24 46 22 88 19 16 6 25 22 44 64 20 23 12 7 27 20 16 18 77 33 36 138 76 431 728 272 175 383 1012 840 809 874 800 733 626 587
25 27 20 31 38 37 43 28 15 0 6 9 26 24 15 1 7 35 31 43 13 18 15 32 51 116 100 56 11 13 4 25 662 451 438 945 1178 887 1065 971 806 525 526 562
17 15 12 27 23 15 11 10 2 0 4 11 66 13 2 23 20 65 46 20 14 64 42 82 172 107 75 24 0 0 4 0 65 898 891 834 996 1074 1020 954 837 554 558 585
8 2 8 30 40 46 67 14 0 0 0 74 89 29 63 3 62 116 40 91 89 135 183 113 93 31 31 0 0 10 63 16 445 849 835 1157 1201 1146 1081 909 652 486 541 740
2 11 36 45 63 2 9 38 79 155 106 118 47 41 33 23 4 58 34 161 206 173 225 165 45 5 15 37 23 20 134 270 118 237 875 977 1047 978 768 584 581 550 757 652
35 41 18 53 0 71 79 53 102 85 54 77 54 42 50 65 93 70 68 13 27 106 225 181 138 74 187 125 32 31 63 86 204 239 238 880 612 633 583 623 689 554 466 410
32 27 23 18 68 71 23 59 107 89 59 96 85 49 0 5 28 115 188 111 106 121 305 107 65 198 267 343 337 259 237 183 106 139 29 167 781 350 548 458 355 313 397 484
53 56 52 45 26 58 15 35 65 82 91 43 64 71 93 155 129 72 170 272 181 330 208 138 231 232 291 401 439 425 363 261 83 51 40 20 95 697 560 477 398 416 450 484
51 48 21 15 6 27 25 124 139 141 126 64 66 96 214 291 209 202 225 165 148 73 94 76 92 111 62 319 395 491 368 139 47 37 74 23 29 477 641 518 559 553 653 484
39 42 99 14 37 32 7 98 63 162 67 37 19 40 192 174 200 243 146 93 73 161 95 31 10 60 47 205 354 564 487 200 111 96 60 34 157 813 622 830 716 776 960 829
50 28 21 14 8 24 40 112 77 41 12 5 12 9 49 108 166 157 90 60 100 48 130 63 59 72 15 271 324 417 667 604 324 122 35 39 64 484 884 826 752 982 1130 1244
32 7 29 19 31 23 18 22 35 12 55 35 44 26 48 160 115 128 278 182 103 74 113 225 90 99 99 58 48 197 441 517 681 667 244 56 128 146 426 287 124 189 537 1748